Погода в Диво

Кот-д’Ивуар     5°50′05″N   5°21′18″W
темп.,
°C
ветер,
м/с
пор.,
м/с
влажн.,
%
обл.,
%
осадки,
мм/ч
давл.,
гПа
погр.,
м
1 марта, пн
пн100:00+24зюз1596100 4.5 1010198
03:00+23зюз159593 0.2 1008177
06:00+22зюз139679 0.3 1008123
09:00+26юз248142 0.0 1010476
12:00+33ююз115339 0.0 10091265
15:00+33ююз215457 1.2 10061471
18:00+27ю258674 4.8 1007234
21:00+24ю159463 0.0 1010249
2 марта, вт
вт200:00+24зюз269543 0.0 1010247
03:00+23юз16972 0.0 1008229
06:00+23зюз149814 0.0 1008166
09:00+27юз248240 0.0 1011610
12:00+30ююз126564 0.1 1010942
15:00+31ююв226192 0.1 10071092
18:00+29ю257352 0.3 1007640
21:00+25ю26864 0.0 1010256
3 марта, ср
ср300:00+24юз27909 0.0 1009292
03:00+23зюз169483 0.0 1008232
06:00+23зюз159690 0.0 1009248
09:00+28юз257699 0.0 1011722
12:00+31юз236194 0.0 10111167
15:00+31ююз235992 0.1 10081216
18:00+28ю367573 0.6 1008482
21:00+25ююз288717 0.0 1010404
4 марта, чт
чт400:00+24юз28929 0.0 1010401
03:00+24юз28922 0.0 1008480
06:00+23зюз179540 0.0 1009395
09:00+28зюз36738 0.0 1011848
12:00+32зюз245729 0.0 10101250
15:00+34юз235152 0.0 10071564
18:00+28ююз268270 4.7 1007200
21:00+24юз2109234 0.1 1009448
5 марта, пт
пт500:00+24зюз199417 0.3 1010496
03:00+24юз299631 0.1 1008479
06:00+23юз289646 0.1 1008468
09:00+27юз377759 0.0 1010787
12:00+30юз356258 0.0 10101223
15:00+29ююз246994 0.4 1007867
18:00+27ююз268378 4.9 1007447
21:00+24ююз299318 0.1 1010500